Theta_e
286 286 286 287 286 285 285 285 285 284 286 286 285 286 287 287 284 282 288 289 286 289 291 292 294 296 297 297 299 301 302 301 301 302 302 303 303 303 303 307 307 307 306 307 309 311 312 312 311 309 309 310 310 310 311 311 311 312 312 312 313 314 314 315 316 318 321 322 324 325 326 326 326 326 327 327 328 328 328 328 328 329 330 330 330 331 332
284 284 283 284 284 284 284 284 285 285 285 285 286 286 287 287 287 289 289 288 288 291 292 293 294 298 298 299 298 297 298 298 299 300 301 302 302 302 302 305 307 306 307 307 308 309 310 310 309 309 308 308 308 309 310 310 311 312 311 311 311 311 312 313 315 318 320 323 324 323 324 324 325 326 326 327 327 327 327 328 328 328 329 330 330 330 331
281 282 283 283 283 283 282 284 285 286 285 285 285 286 287 288 287 288 288 287 287 292 294 292 294 296 297 296 297 298 298 298 299 299 300 300 301 301 302 305 307 306 306 306 307 308 308 308 309 310 310 307 307 309 309 309 310 311 311 311 310 310 311 312 314 317 319 320 321 322 322 323 324 325 326 326 326 327 327 328 327 328 329 329 330 330 330
278 281 280 280 282 283 282 282 283 283 282 281 282 281 285 284 284 286 286 284 285 291 293 293 294 294 294 294 295 296 297 298 298 298 298 299 299 300 303 305 306 305 305 305 305 306 307 307 307 307 307 307 307 308 308 308 310 311 309 309 310 310 311 311 313 315 316 318 319 320 321 322 323 324 325 325 326 326 326 326 327 328 328 329 330 330 330
276 280 280 280 281 280 277 278 280 283 283 284 284 285 287 288 288 284 281 283 289 290 292 289 289 290 291 294 296 296 297 298 298 298 298 298 298 299 303 306 307 306 306 306 306 306 306 306 308 308 307 307 307 308 308 309 310 308 307 308 308 309 310 311 311 313 314 315 316 317 319 321 322 323 323 324 324 325 326 327 327 326 327 328 329 330 330
276 280 280 280 277 271 272 282 285 285 283 284 282 283 285 286 286 285 287 287 288 289 289 289 289 289 290 291 292 295 294 294 295 297 298 300 300 299 302 305 307 307 307 307 307 307 307 308 309 308 308 307 308 309 309 308 306 306 306 306 306 308 308 309 310 310 312 313 314 315 318 320 321 321 322 322 323 324 325 326 326 326 327 327 328 329 330
274 278 278 274 271 272 283 285 286 286 286 286 285 285 285 285 285 285 285 286 287 288 289 289 290 291 292 293 293 295 296 296 295 295 296 297 298 299 300 303 305 306 307 307 307 306 307 308 308 308 307 308 307 306 305 306 305 305 305 305 306 306 307 308 308 309 310 310 312 314 315 317 318 320 321 321 322 323 324 325 325 325 325 326 327 328 329
272 274 272 270 272 282 286 286 285 288 286 286 286 283 285 285 285 284 284 286 287 288 288 289 290 290 292 292 293 295 297 298 296 295 295 296 296 298 301 303 303 303 305 304 306 307 309 309 308 306 307 307 306 305 305 305 304 304 304 304 305 305 306 306 307 308 308 309 310 311 313 314 315 316 317 318 319 321 323 324 325 326 327 327 327 327 328
272 271 272 275 281 280 283 280 281 282 280 282 282 277 283 286 286 286 286 287 288 287 288 289 291 291 290 289 291 295 295 296 297 296 298 298 298 297 300 303 304 304 306 306 307 308 307 309 308 306 306 305 305 304 304 303 303 303 303 303 304 306 305 306 308 307 308 308 310 310 311 312 312 313 314 316 318 320 320 321 322 323 325 326 327 328 328
278 272 272 274 273 271 276 282 285 287 287 289 289 286 282 289 287 289 288 286 289 288 289 289 290 289 287 284 286 292 294 296 298 298 300 300 299 299 299 301 301 302 303 303 305 307 306 306 305 305 305 304 304 304 303 302 301 302 302 304 304 306 306 307 307 306 307 308 308 310 310 311 311 312 313 314 316 319 319 319 320 322 324 325 327 328 327
277 274 272 272 271 273 281 280 284 286 288 289 289 285 278 288 287 286 290 287 288 289 289 289 289 285 280 281 285 290 293 296 300 300 301 300 298 300 301 302 301 300 301 302 305 305 304 304 305 304 303 302 303 304 305 302 301 301 301 302 303 304 305 305 306 306 306 307 307 308 309 310 311 311 311 313 315 316 317 319 321 322 323 324 326 327 327
273 274 272 270 272 272 277 283 284 286 286 288 282 271 274 287 288 289 291 289 288 290 290 291 287 284 281 283 285 291 293 295 299 300 301 301 301 302 304 304 304 303 304 304 303 302 302 303 303 302 301 301 305 303 304 301 300 300 301 303 303 303 304 305 305 306 306 309 308 308 308 308 309 310 312 312 312 313 315 317 319 320 322 323 325 326 325
275 275 274 276 275 281 281 283 286 288 288 284 272 268 278 287 288 290 291 290 289 290 289 290 286 289 290 290 291 292 293 292 293 297 300 302 303 304 304 304 304 304 303 300 299 301 299 300 300 302 302 302 303 304 303 301 301 302 302 302 303 303 304 304 305 305 304 305 306 307 307 308 309 311 310 310 311 312 313 315 316 317 318 320 322 323 324
270 273 272 274 276 281 284 287 287 289 282 272 271 281 289 289 289 290 291 290 290 290 290 290 290 290 292 293 294 293 292 292 292 294 296 299 301 302 304 304 303 303 302 302 302 303 303 299 301 301 302 302 303 302 301 301 302 303 302 301 302 303 303 304 304 305 305 304 306 307 307 309 306 306 307 310 311 312 312 313 313 314 315 317 319 321 322
274 275 270 269 267 277 284 284 282 286 275 276 283 285 288 292 290 289 289 290 291 292 290 291 291 291 292 291 291 291 292 292 292 292 292 293 299 300 301 301 303 303 302 301 302 301 302 301 301 300 301 301 301 301 300 302 304 303 302 302 303 303 303 303 305 305 304 304 306 308 308 308 306 306 306 307 308 310 310 310 311 312 313 316 318 319 321
267 270 269 269 275 279 284 283 277 280 283 285 285 286 284 286 288 288 289 290 291 292 292 291 291 291 291 291 291 290 291 292 292 293 293 293 295 299 300 301 300 302 301 301 300 300 301 300 300 300 299 300 300 299 299 301 301 301 301 302 302 303 304 304 303 304 305 306 305 306 307 306 305 306 305 306 307 309 308 309 310 311 312 314 316 317 319
274 272 275 281 283 284 286 285 284 285 286 287 287 286 285 285 286 289 289 289 291 292 291 291 291 290 291 291 292 291 291 291 291 292 292 293 294 294 296 297 299 299 298 297 297 298 298 297 297 298 298 298 298 298 298 300 300 300 301 301 301 302 303 303 303 303 303 303 304 304 304 305 305 306 305 305 306 306 307 308 309 310 311 313 314 316 317
283 284 284 285 285 285 285 287 287 285 286 287 287 286 285 286 287 289 288 289 290 291 292 290 290 290 291 291 291 291 292 291 292 292 292 293 294 294 293 294 295 295 296 296 296 296 297 297 296 297 296 296 297 298 297 299 300 299 300 300 300 302 302 302 303 303 303 303 303 303 303 303 305 305 305 306 307 305 306 307 308 309 310 311 313 315 315
277 274 281 281 282 284 285 285 286 287 287 287 287 286 286 287 287 288 289 290 289 289 290 289 289 289 290 289 290 291 291 291 291 291 291 291 292 292 291 293 293 293 293 294 294 296 296 297 296 296 295 295 296 297 298 297 297 298 299 300 301 302 301 302 302 302 302 303 303 304 303 303 303 306 306 305 305 306 306 306 307 307 308 309 311 313 314
277 277 281 283 285 285 286 286 285 285 286 287 287 288 288 288 288 289 288 288 287 288 287 288 288 289 289 289 289 289 290 290 291 291 292 291 292 292 292 292 292 292 292 292 293 294 296 297 296 295 294 295 295 296 296 297 297 298 300 300 300 300 301 301 302 302 302 303 304 303 303 303 303 303 303 304 304 305 305 306 306 306 307 307 309 311 312
280 282 283 283 284 284 285 286 286 287 286 286 287 287 287 287 287 287 288 288 288 288 288 288 288 288 288 289 289 289 289 290 290 291 291 292 292 292 291 292 292 291 291 292 292 293 294 295 294 293 293 293 294 294 295 296 297 297 299 299 300 300 300 300 300 302 302 302 302 302 302 303 303 303 304 303 304 304 306 308 308 308 308 309 310 312 313
275 276 279 281 277 277 281 283 285 286 288 288 287 287 287 287 286 287 287 287 288 288 288 287 287 287 287 288 289 289 289 289 290 290 291 291 291 291 291 292 291 291 294 292 292 293 294 294 293 293 293 293 294 294 294 295 295 297 299 299 298 298 298 298 299 300 300 301 301 302 302 302 302 303 299 299 302 305 305 304 301 300 300 308 311 312 312
275 280 282 283 283 283 284 285 287 287 288 288 287 287 287 288 288 288 287 287 287 287 288 289 287 287 287 288 289 288 289 289 290 290 290 290 290 290 291 291 290 290 291 293 293 292 292 293 292 293 293 293 293 294 295 296 296 297 297 298 298 297 297 297 297 299 300 300 300 301 301 301 301 301 302 302 295 295 298 300 298 297 296 297 298 298 306
283 285 285 285 284 282 285 286 287 288 289 288 288 288 289 289 289 289 288 287 286 287 288 288 289 288 287 288 288 287 288 289 289 289 289 290 289 290 290 289 290 290 290 291 291 292 292 292 292 292 292 293 293 294 295 295 295 296 296 296 297 297 296 296 297 296 298 299 300 300 300 301 301 301 301 301 302 296 293 294 294 294 295 295 295 295 295
282 286 286 286 286 286 287 288 288 288 289 290 288 288 289 289 290 290 289 289 289 288 287 287 288 289 288 288 288 287 287 288 290 290 290 291 290 290 289 289 289 290 290 291 291 291 291 291 291 292 291 292 293 293 294 294 295 295 295 296 295 296 296 296 296 297 297 298 298 299 299 300 300 301 301 301 301 302 300 292 292 293 293 293 293 294 294
287 287 287 287 287 287 288 288 288 288 288 289 289 289 291 294 293 293 292 292 291 291 290 289 288 289 289 288 288 288 287 287 289 290 289 289 289 290 289 289 291 291 291 290 290 291 290 291 291 291 291 292 293 293 293 293 293 294 294 295 295 295 295 295 295 296 296 297 298 298 299 300 300 301 301 301 302 302 302 302 303 298 293 292 293 294 294
289 289 288 287 286 286 288 286 286 289 289 290 289 289 290 290 292 292 293 293 292 292 291 290 289 289 289 289 289 288 287 289 289 288 288 289 289 290 290 291 291 291 291 291 291 291 292 293 293 292 292 293 294 294 294 293 293 293 293 293 294 293 293 294 296 296 296 297 298 299 300 300 300 300 301 301 301 301 301 301 301 301 303 303 297 294 297
289 289 289 284 284 285 287 289 290 290 290 290 290 290 290 291 290 290 290 291 291 291 291 291 289 287 286 287 287 287 288 287 287 288 288 289 289 290 290 290 290 290 290 291 291 292 293 293 292 292 292 293 294 294 293 293 293 293 293 293 294 294 295 295 296 297 298 298 299 300 300 301 301 301 301 301 300 301 300 300 301 302 302 304 305 299 296
289 290 290 290 290 290 291 291 291 290 290 291 292 291 290 289 289 289 289 290 291 290 290 292 292 291 289 289 289 288 288 288 288 288 289 290 291 290 290 290 290 290 290 290 290 291 291 291 291 291 293 294 294 294 294 294 293 294 294 294 294 295 296 297 298 298 299 300 300 301 297 299 300 301 301 301 300 301 301 301 301 302 303 304 304 304 301
290 291 291 291 291 291 290 289 290 291 291 292 291 291 291 290 289 289 289 290 290 288 289 290 291 291 291 290 290 289 289 289 289 290 290 290 291 290 290 290 290 290 290 290 291 292 292 292 292 293 294 295 295 295 294 294 294 294 295 295 296 296 297 299 300 300 300 301 301 295 298 299 300 301 300 301 301 300 300 301 301 301 302 303 301 302 302
290 290 290 290 289 290 290 289 290 291 292 292 292 292 292 291 290 290 290 290 290 289 289 290 290 291 291 290 290 290 290 290 290 290 290 290 290 290 291 290 290 292 293 294 294 294 294 294 294 294 296 296 296 296 296 296 296 297 298 298 299 294 293 293 293 300 301 301 300 300 300 300 300 300 299 300 300 300 301 301 301 301 300 302 302 302 303
290 290 290 289 289 289 291 292 292 291 291 292 292 291 292 292 291 291 292 291 291 291 291 291 290 290 291 290 290 290 290 290 290 290 290 290 291 292 292 292 292 291 293 294 294 294 294 294 294 295 296 297 297 297 297 297 298 298 298 295 299 300 296 292 295 296 296 297 298 299 299 300 300 301 300 299 300 300 301 301 301 301 302 301 301 303 304
290 289 289 291 291 291 291 292 292 292 292 292 292 293 293 293 293 293 293 293 292 292 291 290 290 290 290 290 290 290 290 291 291 291 291 291 292 293 293 293 293 293 293 294 294 294 294 294 295 296 297 297 297 298 298 298 298 298 299 299 300 300 295 294 295 298 297 297 298 298 299 299 299 299 300 298 300 299 300 300 300 300 300 301 303 305 306
292 291 291 293 292 291 291 292 293 293 294 295 295 294 294 294 294 294 293 293 292 292 291 291 291 290 290 290 291 291 291 290 290 291 291 292 292 293 293 294 293 293 293 294 293 294 294 295 296 296 297 297 297 298 298 298 299 299 300 301 301 301 301 300 298 298 298 297 298 298 298 298 298 299 299 299 299 299 299 299 299 300 301 303 305 306 304
295 295 295 295 296 296 296 294 293 293 293 293 294 295 295 295 295 295 295 294 293 293 293 293 292 292 291 291 291 291 291 290 291 291 292 292 293 293 293 293 293 294 294 295 295 295 295 295 296 296 297 297 298 299 300 300 301 301 302 302 301 302 302 301 302 301 301 301 301 301 300 300 299 295 297 299 300 300 299 299 300 301 302 304 305 306 304
295 294 295 296 296 297 296 296 296 296 295 295 295 295 295 295 296 296 296 296 296 296 295 294 293 293 291 291 291 291 292 292 292 293 294 295 296 296 296 295 295 295 295 295 295 295 295 296 291 290 295 297 298 299 300 301 302 302 302 303 301 301 300 300 300 299 298 299 299 299 300 298 298 299 298 299 300 301 301 301 301 302 303 304 305 306 307
296 295 295 296 297 297 296 296 296 295 295 296 296 296 296 297 296 297 298 297 297 297 296 296 295 293 293 294 295 295 295 296 296 297 297 297 297 296 295 295 294 294 294 294 296 298 298 299 291 288 293 299 300 301 299 289 297 302 302 302 302 301 300 299 299 299 299 299 298 298 297 297 299 300 298 300 301 301 302 303 302 302 304 304 304 305 304
295 295 296 296 297 297 297 297 297 296 296 296 296 296 296 297 297 297 297 297 297 297 297 296 296 296 295 295 294 293 293 294 294 295 296 296 296 294 293 292 292 293 292 293 296 297 297 295 293 297 301 301 301 301 296 289 292 301 301 301 300 300 299 298 298 298 297 299 298 298 298 298 299 300 300 301 301 301 302 303 303 302 302 301 301 301 301
294 295 296 297 297 297 297 297 297 297 296 295 295 295 295 295 295 296 295 295 296 296 296 295 295 294 294 292 291 291 292 292 293 294 294 295 295 293 292 292 292 292 292 294 296 295 294 295 297 299 300 300 301 300 296 293 293 301 301 301 300 300 298 298 298 297 296 296 298 299 300 299 300 300 300 301 301 298 296 297 297 296 297 297 297 296 296
294 295 296 297 296 296 296 296 296 296 296 296 295 294 295 295 295 294 294 294 294 294 295 294 293 292 291 290 290 290 291 291 292 292 293 294 293 292 292 292 292 292 292 289 294 293 291 290 295 298 298 298 298 299 297 296 295 298 300 299 299 298 297 296 297 297 297 297 296 293 295 295 296 296 296 297 297 297 296 295 295 295 295 295 295 294 293
294 295 296 296 296 296 296 295 294 295 295 295 295 295 295 295 294 293 293 293 293 294 293 293 292 291 291 291 291 291 291 291 290 290 290 290 290 290 289 288 290 292 291 291 292 292 292 291 292 295 296 296 296 293 297 294 298 298 297 296 296 295 295 295 295 295 296 296 295 295 295 295 294 294 294 294 294 294 294 294 294 294 295 294 294 293 293
295 296 296 296 296 296 295 295 294 294 294 294 294 294 294 295 294 293 293 294 293 293 292 292 289 291 291 291 291 291 291 292 291 290 289 288 287 287 287 288 291 291 287 289 290 290 292 292 291 289 293 295 293 289 289 293 296 296 295 294 294 293 293 293 293 294 294 295 296 296 295 294 294 294 293 293 293 293 293 293 293 292 293 293 292 293 293
295 295 296 296 296 296 296 295 294 294 294 295 295 295 295 295 294 294 293 293 293 292 292 291 291 290 290 290 290 289 289 290 291 290 289 289 288 288 287 288 290 289 287 289 290 290 290 290 290 290 288 290 291 289 290 295 295 294 294 293 292 292 292 292 292 292 293 293 293 293 293 293 293 293 292 292 292 292 292 292 292 292 292 292 292 292 291
296 296 296 296 296 296 296 296 295 295 294 295 296 296 296 295 295 294 293 292 292 291 292 291 291 290 289 289 288 287 287 288 288 289 288 288 288 288 289 288 288 288 286 288 287 288 288 288 288 287 286 287 287 288 292 293 293 293 293 292 292 292 291 291 291 292 291 291 291 292 291 290 291 291 291 291 291 291 290 291 291 291 291 291 291 291 291
296 296 296 296 296 296 296 296 295 295 296 296 296 295 295 295 294 294 293 292 291 290 290 290 290 290 290 289 288 288 288 288 287 287 285 284 284 285 288 286 288 286 286 286 287 287 287 287 286 286 286 287 287 288 291 291 291 291 291 291 290 290 291 290 290 290 290 291 291 291 290 290 290 290 290 289 288 289 289 289 289 289 289 289 289 289 289
295 296 296 292 296 295 296 296 296 296 296 294 294 293 293 294 293 293 292 291 290 290 290 290 289 288 289 289 290 289 288 287 287 287 287 286 285 285 287 286 286 285 285 285 285 285 286 285 285 285 286 286 286 288 289 288 289 289 289 289 289 290 290 290 290 290 290 289 290 290 290 290 289 289 289 289 289 289 288 288 288 288 288 288 288 288 288
295 295 295 295 296 296 296 296 295 294 294 293 291 291 292 292 292 292 291 291 290 290 289 288 288 288 288 288 287 287 287 286 286 287 287 287 287 286 286 285 285 285 285 284 284 284 284 285 285 285 285 285 285 286 286 286 286 286 286 286 286 287 287 288 288 288 288 288 288 288 287 288 288 288 288 288 288 288 288 287 287 287 287 287 287 286 286
294 293 294 294 294 295 295 295 294 293 292 291 291 291 291 291 291 291 290 290 289 289 289 288 288 287 287 288 288 287 287 286 284 284 286 286 286 286 285 285 285 284 284 284 284 284 283 283 284 284 284 284 284 284 284 284 284 284 284 284 285 285 285 285 286 286 286 286 286 286 286 287 287 287 286 286 286 287 287 287 286 286 286 285 285 285 284
294 292 292 293 292 293 293 293 292 291 291 292 291 291 291 291 290 289 289 289 288 288 288 288 287 287 287 287 287 287 287 287 285 283 285 286 285 285 284 284 284 283 284 283 283 283 283 282 282 283 283 283 283 283 283 283 283 283 283 283 283 283 284 284 284 284 284 284 285 285 284 284 284 285 284 284 284 284 284 284 283 283 283 283 282 282 282
293 291 292 292 291 291 291 292 292 292 292 291 290 290 290 290 288 288 288 288 287 287 287 287 287 286 287 287 286 286 287 286 286 286 285 285 285 284 284 283 283 282 282 282 282 282 282 282 282 281 281 282 282 282 282 282 282 282 282 282 282 282 282 283 283 283 283 283 283 283 283 283 282 282 283 282 282 282 282 282 282 282 282 281 281 280 280
291 291 291 290 290 289 289 290 291 291 291 291 290 290 289 288 287 287 287 288 287 286 285 285 286 286 286 286 286 286 286 286 285 284 284 284 284 283 282 282 282 281 281 281 281 280 280 280 280 280 280 280 280 280 280 280 281 280 280 280 281 281 281 281 281 281 281 281 281 281 281 281 281 280 280 280 280 280 280 280 280 280 280 279 279 278 278
289 290 289 289 289 288 287 288 288 289 290 289 289 288 288 287 287 287 287 285 286 285 285 285 284 285 286 285 285 285 285 285 284 284 283 283 283 282 282 281 281 281 280 280 280 280 279 280 280 279 279 279 279 279 279 279 279 279 279 280 279 279 279 280 280 280 280 280 280 280 279 279 279 279 279 279 279 279 279 279 279 279 279 278 278 278 278
Wind_Speed
9 5 3 8 13 12 13 16 12 9 9 9 10 14 12 5 9 15 13 11 10 15 18 9 8 10 12 11 10 10 10 5 5 8 11 12 12 10 8 10 9 7 7 8 10 8 6 2 7 13 12 8 2 5 2 3 4 5 4 6 6 5 5 5 3 2 3 4 3 3 2 2 3 4 5 5 4 5 5 5 4 5 6 5 6 6 7
15 10 4 6 13 12 14 13 10 7 9 12 14 12 9 11 13 14 16 18 21 18 18 12 8 10 10 8 4 2 1 6 9 9 11 13 14 15 16 15 15 13 9 11 13 14 10 9 9 9 11 11 3 1 0 2 3 2 4 5 6 6 6 5 4 3 3 1 2 2 2 3 3 4 4 4 4 4 5 5 5 6 6 6 6 7 7
17 9 3 7 9 9 13 16 12 12 9 10 10 10 13 14 14 16 17 17 20 16 9 6 7 7 5 4 6 10 10 8 9 10 11 13 14 13 12 13 14 15 13 10 6 8 13 14 12 10 10 11 6 1 0 1 1 1 2 5 6 6 6 3 3 4 4 5 4 3 1 2 3 3 3 3 3 4 4 4 4 5 6 6 6 6 7
15 6 4 3 6 7 10 13 14 15 11 9 6 4 6 5 11 14 13 12 12 14 9 1 4 4 5 9 11 10 9 9 10 11 12 13 14 14 13 14 13 13 12 11 12 13 11 10 11 9 8 8 2 1 1 1 0 0 2 4 6 6 4 4 4 5 5 5 6 5 4 4 2 2 3 2 3 4 4 4 5 4 5 6 6 6 6
11 9 5 8 10 11 12 5 3 5 5 4 4 4 4 5 8 8 8 9 6 10 13 12 9 10 9 8 9 10 10 8 8 10 12 13 13 12 14 14 15 15 15 15 15 14 12 13 10 8 7 6 6 6 5 3 1 3 4 4 5 5 4 4 5 4 4 5 6 6 6 5 4 3 2 2 3 3 5 4 3 4 5 5 6 6 7
8 10 8 3 6 9 8 2 3 4 3 5 7 8 10 7 7 3 4 7 11 13 14 13 12 11 12 13 10 4 4 8 10 11 12 14 15 11 9 13 14 15 13 10 10 13 14 12 10 7 4 4 5 4 4 3 4 3 5 4 5 4 4 4 4 4 5 5 6 6 6 6 5 5 4 4 4 3 4 3 4 4 4 6 6 6 6
6 6 4 6 10 11 2 4 8 6 3 5 8 9 5 7 10 12 13 12 12 11 10 10 11 12 14 14 9 2 6 6 7 11 12 12 14 13 9 11 11 12 11 8 7 6 8 8 6 4 3 2 3 3 4 5 3 5 4 5 4 3 4 3 4 5 5 5 5 5 6 6 6 6 5 5 5 5 4 4 4 5 5 5 6 6 6
2 2 1 7 8 3 6 3 6 7 1 5 11 6 2 7 5 4 8 11 11 10 11 12 10 12 16 13 7 2 11 9 9 11 11 13 15 13 12 10 9 7 3 2 4 5 2 3 4 3 6 6 6 7 5 7 5 4 4 4 4 4 4 3 3 3 4 4 4 4 5 5 6 6 6 6 6 6 5 4 4 4 5 5 6 6 6
6 2 4 10 9 13 8 3 4 5 2 5 6 7 9 3 5 5 7 9 10 12 13 13 13 15 12 4 2 6 15 14 13 10 10 11 13 15 9 3 8 4 4 6 5 2 2 4 6 8 7 6 6 5 4 4 5 5 5 4 2 2 3 3 3 3 3 3 3 3 4 4 5 5 6 7 7 5 5 5 5 5 5 5 5 5 5
3 5 10 9 9 11 2 4 2 2 3 5 6 4 7 4 3 1 4 5 10 12 9 11 15 14 9 9 9 13 18 15 13 15 11 11 14 13 11 11 6 6 4 3 1 3 6 5 7 6 6 8 6 5 4 3 3 3 3 2 2 1 1 2 3 3 3 3 2 1 2 3 3 4 4 4 5 6 5 6 5 5 5 5 6 5 6
5 7 10 9 11 7 2 9 8 5 4 5 4 3 9 3 2 1 5 5 5 9 12 12 9 11 10 10 8 12 16 16 14 12 11 11 14 12 11 10 11 12 8 3 3 4 3 8 10 6 5 3 4 4 4 4 3 3 2 2 2 3 2 2 2 2 2 2 2 2 1 0 1 3 5 5 4 5 5 5 6 5 4 5 6 6 6
4 8 8 9 4 5 4 7 4 4 11 6 4 13 4 3 8 1 2 4 6 5 7 6 4 3 8 11 12 14 16 14 12 11 11 9 8 11 12 12 8 5 3 1 3 5 9 9 4 4 2 2 2 2 2 2 2 3 4 5 6 4 3 4 4 3 2 2 2 1 1 1 1 1 2 4 6 6 6 5 5 5 5 4 6 6 5
10 10 10 6 5 5 5 2 3 10 8 3 8 12 5 8 11 8 7 8 7 7 7 4 7 4 5 8 11 12 14 15 17 14 11 8 6 7 7 7 9 8 9 8 2 3 3 4 4 2 3 4 2 1 1 0 4 5 5 4 4 5 4 4 4 4 4 3 2 2 2 2 1 1 1 2 3 5 6 6 6 5 5 5 6 6 5
6 5 9 10 8 8 6 7 6 4 5 8 10 5 5 8 11 8 6 10 9 6 7 6 6 7 7 8 8 9 10 13 13 13 15 14 11 8 7 7 4 6 8 10 11 8 6 6 3 4 4 3 4 4 3 4 7 7 4 4 3 3 5 5 4 4 4 4 4 4 3 2 1 2 1 1 2 3 4 5 6 7 6 5 5 6 5
2 3 3 4 6 3 3 1 5 1 1 7 8 9 10 5 9 10 10 7 8 3 7 6 7 10 10 9 10 9 10 11 13 14 15 15 10 11 10 8 6 4 6 6 10 8 5 5 4 2 1 3 5 4 4 8 7 5 4 4 4 4 4 5 5 5 5 4 4 4 4 5 3 2 3 2 3 3 4 4 5 6 6 6 6 7 6
4 4 6 6 8 4 3 2 8 6 11 10 10 8 10 7 8 10 10 6 6 7 8 9 9 10 12 12 8 8 9 9 10 13 13 13 10 8 10 10 8 5 7 6 6 7 6 5 4 3 4 6 5 5 9 9 5 5 5 5 4 5 5 5 5 5 5 5 5 4 4 4 5 4 3 2 2 3 4 5 6 6 5 5 6 6 7
4 8 10 12 12 13 14 10 11 13 14 12 10 8 7 10 12 9 9 9 9 9 10 9 10 10 10 13 12 9 10 10 10 10 13 14 14 12 9 10 6 6 9 10 8 8 8 8 7 7 7 7 6 5 6 5 5 5 5 4 4 5 7 7 6 5 3 3 4 4 5 4 4 5 4 4 2 3 2 4 4 6 7 6 6 7 8
14 16 15 15 16 17 17 14 10 10 12 10 7 8 11 11 12 10 10 11 9 9 7 10 9 10 10 10 13 14 11 10 10 10 10 12 12 14 10 7 6 5 6 6 5 7 8 6 6 6 7 7 6 5 3 3 4 4 4 4 4 6 7 6 7 6 6 6 4 4 5 5 5 5 5 5 5 4 4 5 5 5 6 6 6 7 8
6 12 5 10 13 12 11 14 15 12 10 12 11 12 11 12 12 13 11 10 8 7 7 11 13 13 10 10 10 11 12 12 12 12 12 12 11 12 14 14 8 5 4 6 6 6 6 6 4 4 3 5 7 6 6 5 4 4 4 5 6 6 7 8 7 6 7 7 8 7 5 5 5 5 5 5 5 5 5 5 5 5 6 6 7 7 8
9 18 18 17 16 15 14 13 14 16 16 14 11 11 12 13 13 11 11 9 11 10 10 11 12 12 10 11 12 11 11 12 11 12 13 12 12 12 9 9 8 6 6 6 7 7 8 8 6 5 5 6 7 7 7 6 5 5 6 7 7 8 8 7 7 7 7 8 9 8 8 6 7 6 5 6 6 7 7 7 6 6 7 7 7 7 8
11 14 17 21 22 17 17 19 15 13 12 13 13 12 12 12 13 13 12 11 13 12 12 11 11 13 14 13 14 13 11 11 11 11 12 13 12 11 12 11 8 8 7 7 7 8 9 7 7 6 7 8 7 6 7 6 6 6 8 8 8 8 8 7 7 7 7 7 7 8 9 9 8 8 8 7 7 7 8 7 8 7 7 8 8 7 7
14 10 14 9 13 16 4 8 11 15 16 16 15 13 13 13 13 13 15 15 13 13 11 10 11 13 14 14 13 14 12 12 12 12 13 13 12 12 10 9 9 8 7 9 9 9 9 7 7 7 8 9 9 8 7 6 6 7 8 8 8 8 8 8 8 7 7 8 8 8 8 9 10 10 8 11 9 7 7 10 14 14 11 9 9 8 8
16 14 12 11 14 20 18 16 17 14 13 14 17 17 16 16 15 14 14 15 15 15 14 11 11 12 13 14 13 13 12 12 11 11 12 12 13 12 11 9 10 10 9 7 7 9 9 8 8 8 8 9 9 9 8 8 7 8 8 7 7 7 7 7 8 8 8 8 8 8 8 8 8 9 11 7 10 13 12 11 12 15 15 17 15 13 11
22 21 19 17 15 18 21 18 17 18 15 16 20 19 17 18 17 15 14 13 14 15 14 14 11 12 13 13 12 13 14 13 12 12 11 11 11 12 10 10 11 11 12 12 11 11 8 7 8 8 9 10 10 10 9 8 8 8 8 7 8 8 7 7 8 8 7 8 8 8 8 8 8 9 9 11 10 8 12 14 14 15 16 16 15 15 15
18 18 17 17 18 21 20 20 19 18 16 16 18 19 18 18 18 15 14 13 12 13 14 14 13 12 13 13 11 11 13 13 12 11 12 11 11 9 9 9 10 11 12 12 11 10 8 8 8 8 8 10 9 9 9 8 7 8 9 8 9 9 8 8 8 8 8 8 8 8 9 9 10 9 9 9 11 11 6 9 13 14 14 14 15 15 15
17 18 18 19 19 20 19 19 20 18 18 17 18 18 18 18 17 15 14 14 14 13 13 12 13 13 13 13 12 10 10 11 12 12 9 9 10 9 10 11 13 11 10 10 10 10 9 9 9 9 10 11 9 8 8 8 8 9 10 10 10 9 8 8 9 8 8 8 9 9 9 9 10 10 10 10 10 10 10 9 9 8 9 13 14 15 14
17 17 19 22 21 19 16 17 19 16 16 16 17 19 18 18 15 16 16 15 16 15 14 14 13 13 12 11 11 9 10 11 9 8 8 10 11 12 12 11 10 10 10 9 9 9 10 9 8 9 10 11 9 8 8 8 8 9 9 9 9 11 15 11 8 9 8 8 9 9 9 9 10 10 11 10 10 10 10 11 10 11 11 8 9 13 14
17 16 13 16 21 22 20 20 21 21 20 20 20 20 19 17 16 16 15 13 14 13 13 12 13 11 11 10 9 11 10 9 11 11 10 10 11 11 10 10 10 9 8 8 9 8 7 7 8 9 10 10 8 8 8 8 8 9 10 9 9 9 9 10 10 9 10 10 10 10 10 10 10 10 10 10 10 11 10 10 11 11 10 9 8 8 15
19 16 14 15 19 21 21 20 20 21 22 20 19 18 17 18 18 16 16 15 15 12 13 14 12 13 12 11 10 10 10 11 10 11 11 11 10 10 9 9 8 8 7 7 7 7 7 8 9 10 12 10 8 8 8 8 8 9 9 9 9 9 9 9 9 9 10 10 10 11 11 11 10 10 10 10 10 10 10 10 11 10 10 9 8 8 9
18 18 18 18 18 19 20 21 20 21 19 19 18 18 17 17 17 16 15 13 10 11 15 15 13 13 11 10 10 10 11 12 12 11 10 10 10 9 8 8 6 6 6 7 9 9 10 10 11 12 13 10 9 10 9 9 9 9 10 10 9 9 9 9 8 9 9 9 10 12 11 11 10 10 10 11 11 11 11 12 11 10 10 10 8 11 11
21 21 22 22 19 19 20 20 18 17 17 17 16 15 16 15 15 14 12 10 9 11 13 12 13 15 15 12 10 10 10 10 10 10 9 9 9 8 7 5 5 9 10 10 10 9 10 11 11 12 11 10 10 9 8 8 8 9 8 8 8 12 15 15 12 11 10 10 11 10 10 10 10 11 12 11 11 10 11 10 10 10 10 10 10 11 11
19 19 22 20 17 15 16 15 14 14 16 16 15 15 14 12 12 12 11 10 9 9 10 10 11 14 14 11 9 10 9 8 8 8 8 8 8 7 7 8 9 10 11 11 10 10 10 11 12 13 11 10 9 9 8 8 8 8 8 8 9 9 10 13 10 12 12 12 12 12 12 11 12 11 12 12 12 12 11 11 12 11 10 11 11 11 9
19 19 16 17 17 18 17 16 15 15 14 14 12 11 10 9 9 9 9 9 8 8 7 7 8 8 8 7 8 9 9 7 6 5 6 7 8 8 8 7 8 9 10 10 11 11 10 11 12 11 10 9 8 8 7 8 7 8 8 8 8 9 10 11 13 12 12 13 12 13 12 13 13 12 13 12 12 11 11 12 12 11 11 11 12 10 8
18 18 18 17 15 15 16 19 16 15 14 13 11 9 9 8 7 7 7 8 8 8 7 8 8 7 6 6 6 5 4 4 6 7 7 7 8 7 7 7 7 7 8 8 8 9 9 10 10 9 9 8 8 7 7 7 8 8 9 9 9 10 10 11 13 13 13 13 13 15 14 14 14 14 13 12 12 11 11 11 11 11 11 11 10 9 10
15 17 16 16 16 14 13 14 11 11 12 14 12 9 7 6 6 6 7 7 7 7 6 5 5 5 4 4 4 5 5 6 7 7 7 6 6 7 7 7 6 6 7 7 7 8 8 8 7 8 8 8 8 9 9 10 10 10 10 11 10 9 10 11 11 10 11 11 11 12 13 14 14 13 14 13 11 11 11 11 11 10 10 10 9 8 10
17 17 15 14 13 13 14 15 12 14 13 12 9 7 8 7 7 6 6 6 6 5 4 4 4 3 3 4 5 5 5 5 5 4 4 5 5 5 4 3 3 4 5 6 4 4 6 7 9 10 8 7 7 8 8 8 9 9 8 8 7 9 10 10 10 11 11 12 12 13 13 14 14 12 12 11 11 11 11 10 10 10 9 9 9 9 9
17 16 15 14 12 11 13 10 10 12 11 10 10 8 8 8 7 6 5 5 4 3 3 3 3 4 4 3 3 2 3 4 4 4 3 3 2 2 4 4 6 6 6 5 7 8 8 7 9 9 5 3 4 4 5 5 3 4 3 3 4 8 7 8 10 10 11 12 12 12 12 11 10 9 10 10 10 10 9 9 7 7 7 8 9 10 10
18 17 15 14 12 11 11 10 10 8 9 12 12 12 11 10 9 8 7 6 5 5 3 2 3 4 6 7 8 8 7 6 5 4 4 4 4 6 8 8 9 8 8 8 9 7 6 7 8 6 4 5 5 6 9 12 8 4 2 2 4 7 10 11 12 10 9 8 9 9 9 9 10 9 8 8 8 8 8 7 6 4 2 3 4 5 5
17 15 14 13 10 11 11 11 12 12 13 14 12 12 12 12 12 13 13 13 12 11 11 10 10 9 9 10 9 9 9 8 7 6 5 6 6 8 9 9 9 8 7 8 6 5 7 8 6 7 7 7 8 8 10 14 14 9 9 8 9 9 9 9 9 9 10 11 10 6 5 5 5 5 6 6 5 5 7 10 10 9 8 8 9 9 9
14 14 15 12 11 11 11 12 13 14 13 13 13 13 12 12 13 13 13 14 13 11 11 10 11 10 11 11 10 9 10 9 9 8 6 5 6 7 7 10 11 9 9 9 7 9 12 14 9 7 8 8 8 7 7 10 9 6 7 8 9 8 8 10 12 12 12 12 14 14 12 13 12 12 11 12 12 11 10 11 11 11 11 10 10 10 11
14 14 14 12 12 12 13 13 13 13 13 14 14 13 13 12 12 14 13 12 12 12 13 12 11 11 11 10 10 10 10 10 11 11 11 12 11 9 10 11 11 11 11 9 8 9 12 10 9 8 7 7 7 9 8 10 8 7 8 8 9 10 11 12 13 14 12 13 14 13 12 13 14 15 14 14 13 13 12 12 12 11 11 12 12 12 13
14 13 13 13 12 12 12 11 11 12 13 12 13 13 14 13 13 12 11 10 11 11 12 12 13 12 10 10 10 10 11 11 11 13 14 13 12 9 10 10 10 9 12 10 10 11 10 10 10 9 8 7 7 11 12 8 7 8 8 9 10 10 11 12 13 13 12 12 12 12 13 13 14 14 14 15 14 13 13 13 14 13 12 12 12 12 12
12 12 11 11 11 11 10 10 10 10 10 10 10 9 9 9 9 10 10 11 11 11 11 11 11 12 11 11 11 11 11 10 10 10 10 11 12 11 9 7 8 9 13 10 10 9 10 9 9 9 11 9 9 12 12 9 10 10 9 10 10 11 11 12 12 12 13 13 14 13 13 13 14 14 14 14 13 12 11 12 13 12 11 12 11 11 11
9 9 9 9 9 8 8 8 8 9 10 10 9 8 10 10 10 10 10 10 10 10 10 10 11 12 12 11 12 11 10 10 10 8 8 9 11 13 12 9 8 9 13 10 10 10 10 10 9 13 14 15 16 15 11 10 10 10 10 11 11 11 12 12 12 12 13 13 13 13 13 14 14 14 14 14 14 14 14 14 13 13 13 12 12 12 12
7 7 9 9 9 8 8 8 9 9 7 7 8 9 9 10 10 10 10 11 11 11 11 11 10 10 9 9 10 9 9 9 9 10 11 11 11 11 11 10 10 9 10 9 8 11 10 10 14 15 11 17 17 16 12 11 10 10 11 11 11 12 12 12 12 12 12 13 13 12 12 13 12 13 13 13 13 13 13 13 13 13 12 12 12 12 11
6 7 7 7 8 8 7 7 7 7 7 8 8 9 9 9 9 9 10 10 10 10 10 10 10 10 10 8 7 7 9 10 11 11 10 8 7 5 7 8 8 8 14 16 11 10 9 15 16 16 18 17 16 14 11 11 10 11 10 10 11 12 12 11 11 11 12 12 12 11 11 12 12 12 12 12 12 12 13 14 13 13 12 12 12 11 11
6 6 6 5 5 6 6 6 6 7 8 8 8 8 8 8 8 7 8 9 9 9 9 10 10 10 10 10 9 7 7 7 9 9 9 7 7 6 8 10 10 13 14 11 10 10 10 11 14 17 18 20 19 12 11 10 10 10 11 10 10 10 10 10 11 11 11 10 11 12 13 12 11 11 12 12 13 12 12 13 12 11 10 11 11 11 12
5 5 6 6 6 5 5 6 6 7 7 6 5 5 6 6 7 7 7 8 8 9 9 9 9 10 11 10 10 10 8 6 7 8 8 7 7 7 8 8 10 11 12 13 16 16 20 18 19 19 19 18 14 10 10 10 10 10 10 10 10 10 9 9 10 9 9 11 11 11 11 11 12 12 12 12 12 11 11 11 11 10 10 11 11 11 11
5 5 6 5 4 5 5 5 5 5 5 4 5 5 5 5 7 7 7 7 8 8 8 9 9 9 9 9 9 8 9 9 8 7 6 7 7 7 8 9 13 12 10 9 10 9 15 19 19 19 19 16 11 10 10 10 11 12 11 10 10 9 10 10 9 9 9 10 10 10 10 10 10 10 11 11 11 10 11 11 10 10 10 9 10 10 10
2 3 5 4 5 5 4 4 4 4 3 3 4 4 4 4 6 7 6 6 6 6 7 7 7 8 8 8 8 8 8 8 8 7 8 8 9 8 9 9 9 13 13 9 9 9 12 17 17 17 14 11 10 9 10 11 11 12 11 11 12 11 11 12 12 14 13 12 11 10 10 10 9 11 10 9 9 9 9 9 10 12 17 12 10 9 9
4 4 4 4 4 3 3 2 2 2 3 4 4 4 4 5 5 5 6 6 4 6 7 8 8 8 7 7 7 8 8 7 8 9 8 8 8 9 10 9 11 10 11 11 10 9 9 9 9 10 11 11 10 10 10 10 10 11 11 10 10 9 9 11 10 10 10 10 9 10 10 10 10 10 10 10 10 10 10 10 10 9 9 10 10 9 9
2 1 2 3 3 3 3 4 4 4 4 4 4 4 4 4 5 5 6 6 6 6 5 7 8 7 6 6 7 7 7 8 7 8 8 9 9 8 9 10 9 10 10 9 9 9 8 8 11 13 12 9 8 9 10 13 11 9 9 10 10 10 10 9 9 9 9 10 10 10 10 10 9 10 10 9 9 9 10 9 9 9 9 9 9 9 9
Wind_Direction
263 247 276 295 289 271 276 279 276 264 244 240 233 237 242 208 234 264 279 278 264 270 275 264 205 219 224 225 231 223 212 209 218 223 216 222 223 215 220 219 230 231 193 162 154 163 179 209 296 304 298 301 352 35 6 58 75 85 89 92 88 81 70 57 28 323 284 270 260 257 252 226 229 235 233 221 203 189 192 196 196 212 227 224 228 227 225
287 282 266 264 272 284 287 279 279 270 245 239 231 244 242 226 241 250 262 264 263 260 260 265 227 230 229 237 257 331 242 232 226 218 218 218 227 224 216 208 200 213 208 181 175 159 188 200 214 242 289 289 302 234 121 38 62 73 85 91 91 80 67 46 14 13 10 339 281 256 249 239 235 239 241 235 217 208 205 201 200 204 210 212 212 220 226
286 298 177 229 254 278 286 291 303 290 277 259 242 235 240 242 248 253 256 259 265 269 271 253 240 243 256 292 281 254 244 237 230 221 220 226 235 240 231 223 211 200 189 190 191 184 191 200 192 193 214 254 250 190 39 18 8 344 58 94 86 86 77 50 30 20 22 24 19 6 295 246 256 248 251 244 234 228 224 213 208 207 211 216 216 214 218
288 311 80 297 289 289 281 289 287 285 284 282 268 218 232 220 244 252 257 261 265 272 294 3 288 280 268 258 259 259 252 241 233 229 230 230 233 234 228 221 214 208 195 184 183 189 193 196 197 182 192 224 201 125 260 249 233 312 79 85 87 86 94 84 59 40 26 19 21 14 13 351 295 247 242 243 246 242 237 234 227 212 214 218 219 213 212
268 296 357 338 323 319 306 287 301 311 301 265 291 301 307 249 255 266 263 255 298 333 342 339 328 328 311 294 270 272 275 269 257 252 249 247 245 234 228 219 209 205 204 199 191 183 182 185 182 159 209 188 159 172 179 209 156 87 75 80 88 81 74 78 67 58 43 34 22 14 6 360 351 343 314 271 255 250 249 246 240 231 232 226 228 219 215
283 302 317 351 345 291 260 113 46 26 330 322 344 309 301 329 15 306 335 336 338 346 349 345 332 334 319 308 305 329 340 326 317 303 284 270 263 255 230 219 211 211 209 210 198 179 172 173 161 169 186 166 162 171 150 145 106 90 94 72 79 75 60 57 60 61 52 41 31 11 0 2 0 356 352 323 297 270 263 254 240 245 234 234 230 224 223
269 291 327 321 257 262 260 102 21 13 355 45 346 300 37 34 11 4 359 349 347 330 320 319 312 307 303 299 277 315 7 3 348 332 325 314 287 262 233 220 215 211 199 191 198 187 175 144 133 129 165 195 177 167 162 122 120 109 100 102 87 91 82 53 45 47 51 46 33 14 8 6 5 3 354 338 325 310 294 278 266 250 240 239 234 227 229
344 312 206 262 269 301 303 341 36 3 46 7 1 336 108 39 25 1 355 339 331 332 331 331 321 309 303 292 252 81 10 9 354 340 330 328 332 286 231 206 191 172 166 184 225 244 118 94 107 150 182 184 185 177 168 141 138 130 125 108 117 109 97 107 99 80 67 49 35 21 14 12 15 4 353 344 334 323 312 293 279 275 262 246 246 235 219
247 238 241 259 314 312 303 350 348 26 1 327 333 296 298 79 1 25 351 332 335 340 342 335 334 327 313 300 341 9 351 346 341 338 323 331 334 332 313 209 166 142 139 192 203 224 128 144 155 203 200 200 187 151 124 107 120 128 118 106 111 120 127 134 127 138 122 97 63 36 21 19 12 1 352 341 337 329 321 309 295 283 277 265 256 245 235
33 334 309 299 296 287 310 234 203 238 241 247 239 246 272 169 29 228 346 333 322 327 327 346 345 335 353 357 335 343 342 343 340 332 337 347 345 339 352 346 4 49 39 1 338 180 152 198 209 205 198 200 162 126 122 101 85 73 81 129 178 182 159 159 152 157 151 133 114 96 55 26 347 340 334 328 324 324 323 312 300 282 271 275 268 253 242
317 288 282 281 281 269 201 237 246 255 258 257 293 235 289 181 344 280 7 327 326 325 332 338 360 359 349 320 324 331 335 338 334 325 327 349 332 334 337 354 4 1 352 360 317 325 248 210 210 207 202 166 113 126 147 162 159 151 204 214 218 207 215 211 185 170 162 154 144 147 146 188 275 323 329 325 316 315 314 305 298 292 273 265 269 261 243
252 267 260 270 244 268 264 235 234 301 324 284 330 302 286 346 338 248 203 266 284 293 305 321 355 20 327 316 315 322 325 331 325 317 316 321 321 318 328 346 9 340 334 306 270 226 232 234 240 179 146 112 112 132 201 126 171 211 218 214 209 212 209 200 193 184 182 168 171 171 183 205 217 242 277 321 331 332 319 309 300 302 296 268 264 265 259
256 250 265 269 287 300 294 286 279 296 272 316 304 278 303 324 298 295 298 291 289 288 290 302 302 244 225 259 284 309 318 329 331 330 327 316 303 302 312 319 333 3 338 312 264 214 246 273 330 22 47 40 347 319 14 343 261 250 237 223 200 203 207 210 214 208 192 177 184 218 208 206 196 203 224 273 300 323 323 322 322 313 297 290 283 275 262
250 251 258 269 275 252 203 234 223 255 334 304 287 286 294 277 280 281 269 285 284 277 268 268 267 280 290 294 302 309 321 320 318 325 328 327 326 327 313 313 331 341 329 319 317 336 350 346 3 21 20 360 314 309 320 270 249 249 266 266 249 216 195 209 220 227 218 206 191 201 209 180 169 284 261 231 259 271 292 305 317 314 310 298 288 285 280
308 265 287 313 297 270 155 211 310 153 300 265 281 300 296 258 271 284 285 268 279 270 278 267 272 287 290 296 301 306 310 315 319 323 326 326 310 313 314 309 277 245 265 284 293 302 315 325 349 25 56 257 259 263 255 250 255 268 274 277 257 231 229 221 217 217 220 214 213 197 196 186 177 221 257 313 306 303 305 306 304 307 307 303 298 292 285
155 231 258 237 214 235 214 323 288 266 262 276 283 287 288 284 280 284 281 244 235 243 251 267 270 278 289 290 290 293 295 300 306 311 310 311 301 270 271 269 277 231 238 259 265 272 269 267 270 259 194 223 228 216 234 244 256 268 271 270 279 281 264 248 240 227 216 213 217 217 213 192 182 196 222 229 270 285 305 310 315 309 301 300 297 293 293
246 238 242 262 277 280 280 275 264 266 271 276 274 258 257 286 289 274 257 250 239 238 249 258 264 270 272 282 283 282 288 295 294 295 297 298 301 288 257 254 228 214 226 232 231 239 235 224 209 209 207 211 223 218 245 225 227 236 250 270 287 280 278 280 276 270 257 220 216 221 228 205 208 208 205 187 226 268 265 283 288 296 297 299 297 300 293
257 255 252 266 270 271 276 274 265 268 275 273 263 267 280 275 271 270 260 253 243 246 247 266 269 261 261 266 284 291 287 284 285 289 287 285 282 288 284 254 243 229 224 235 239 251 270 248 227 198 194 191 201 224 238 213 217 217 227 240 254 260 266 269 276 286 297 289 264 232 228 213 218 219 206 195 194 217 235 264 267 268 286 290 293 291 293
306 277 141 229 253 266 274 280 282 275 263 265 270 273 266 267 270 273 263 252 253 249 267 268 271 271 266 265 268 274 282 284 289 290 284 279 273 272 284 290 299 291 283 286 284 282 283 282 269 255 205 200 220 243 253 250 220 207 207 213 228 246 252 259 266 270 278 287 291 284 253 234 220 219 208 191 192 201 210 232 255 266 260 275 280 283 285
236 269 280 275 269 267 275 280 283 282 280 272 261 255 257 261 262 261 259 257 267 275 273 266 263 265 267 275 275 271 271 278 280 282 284 278 279 276 259 266 275 279 271 264 270 271 270 268 262 256 258 242 229 227 243 247 231 198 205 208 216 222 231 236 249 257 263 270 277 285 283 269 264 250 216 195 196 201 203 209 229 252 261 256 256 260 275
263 267 275 277 282 270 261 265 262 263 267 275 276 268 262 258 259 261 262 262 270 271 263 259 261 270 274 270 270 268 265 267 274 275 274 278 277 276 285 287 285 274 271 267 258 257 257 258 266 274 272 270 267 250 240 234 220 209 218 219 216 219 220 221 236 242 250 260 261 269 279 281 261 241 249 234 217 224 211 204 201 224 241 247 249 249 250
272 260 275 292 301 297 243 240 263 280 282 282 277 270 266 262 262 264 268 270 268 264 257 254 259 265 269 270 268 266 262 261 264 268 271 272 270 270 263 257 259 261 247 245 258 260 258 258 259 260 264 267 267 262 256 246 220 219 226 225 225 228 217 216 221 226 240 248 255 260 263 268 282 285 234 222 233 221 232 217 220 218 218 233 238 248 258
278 278 270 272 268 274 277 283 280 269 270 273 277 277 274 270 263 262 265 271 274 273 271 257 251 255 260 265 267 267 266 265 260 257 261 267 273 272 267 270 274 268 264 252 233 234 241 245 252 256 260 260 262 263 254 249 231 230 227 231 237 241 232 228 220 217 223 234 242 254 260 264 269 274 291 263 225 229 229 223 221 229 234 236 243 248 247
266 275 278 275 270 272 282 277 275 277 274 273 273 271 268 268 267 265 262 259 266 272 273 272 261 256 257 259 258 262 268 268 267 266 260 257 256 263 272 272 272 278 282 281 274 263 248 224 225 233 243 248 247 250 245 242 235 240 239 234 242 240 234 238 236 232 230 230 235 242 254 261 259 266 267 282 281 223 226 231 237 237 240 245 244 245 247
265 269 273 274 273 273 274 276 276 274 271 268 270 271 267 266 263 258 261 266 263 266 270 271 270 265 263 260 251 251 257 263 264 263 263 264 259 254 257 263 266 261 261 262 266 270 273 270 266 256 250 251 244 247 248 245 238 239 241 235 239 241 236 235 234 234 234 233 232 231 242 247 258 252 253 255 266 279 254 244 244 244 247 249 250 250 247
264 273 273 272 273 274 279 282 273 266 267 264 264 267 265 261 259 259 248 253 263 264 266 268 270 269 263 262 259 250 251 254 256 260 266 264 265 264 259 250 251 253 252 253 253 256 259 260 262 267 270 268 262 252 247 246 241 240 244 243 241 245 242 234 233 235 233 234 235 238 235 237 239 245 244 243 248 256 271 274 281 271 251 252 254 257 258
275 276 287 290 280 270 266 267 281 281 275 270 267 268 269 270 254 246 244 237 241 252 259 266 266 266 263 258 259 253 247 258 262 255 250 254 257 256 256 258 257 255 255 256 255 254 255 259 260 258 258 261 260 255 250 247 245 246 244 244 247 251 250 247 241 242 241 239 240 238 237 234 236 235 240 243 241 246 247 256 259 265 272 255 241 235 247
285 285 281 277 284 288 285 280 279 282 281 277 275 272 272 271 270 264 253 242 240 238 245 250 258 259 257 258 255 265 264 256 256 259 256 252 253 256 259 257 258 260 261 261 262 266 268 265 262 262 261 260 255 249 243 240 241 245 247 244 243 243 245 239 238 243 242 242 239 238 236 235 233 232 234 236 239 242 242 241 248 252 259 256 246 236 237
292 290 283 268 269 277 284 287 287 283 282 279 274 271 269 269 266 262 259 250 242 232 242 249 250 252 253 258 256 255 258 262 260 258 257 260 262 261 261 265 267 267 266 269 270 268 266 266 266 267 269 266 264 258 250 242 240 241 243 241 239 240 241 238 235 234 237 235 236 236 235 236 235 236 235 236 236 241 241 241 241 241 246 257 264 265 252
295 295 292 288 285 284 286 287 285 285 284 284 283 279 272 267 265 261 260 251 230 221 235 242 246 255 251 252 253 250 250 251 252 256 260 264 267 269 269 268 285 289 289 282 271 269 267 266 266 266 268 270 265 259 256 251 248 247 246 247 245 245 245 241 237 240 241 240 238 232 233 234 233 233 235 233 233 232 236 240 238 240 246 249 246 260 263
295 294 291 290 288 286 287 282 283 284 285 284 283 283 281 276 271 270 263 254 233 229 232 226 230 245 252 250 252 252 251 251 253 256 259 261 262 261 263 260 259 270 269 268 268 265 264 265 265 264 266 266 265 261 257 252 248 249 251 251 250 245 247 248 247 248 250 249 245 240 237 232 232 230 232 233 233 232 234 236 238 239 242 248 250 253 254
294 294 297 298 300 295 294 294 291 285 282 283 282 280 278 276 273 271 270 268 261 242 230 222 218 230 243 242 250 258 254 248 249 252 253 257 256 255 250 249 247 253 261 267 269 268 266 266 266 264 265 266 265 263 252 247 244 245 246 250 253 263 256 251 253 249 247 247 248 245 241 237 237 229 231 229 230 230 230 232 237 238 239 243 247 248 248
311 315 315 313 309 306 306 308 309 305 302 295 285 279 278 271 266 264 264 262 264 259 247 240 236 234 233 227 227 240 250 253 256 259 260 259 258 258 259 253 250 250 254 252 255 259 261 262 263 269 270 266 259 255 248 244 244 247 253 251 256 255 256 253 247 250 247 244 242 240 242 237 237 233 232 230 227 225 226 230 234 236 238 241 244 246 242
319 320 316 313 309 307 316 316 312 306 302 302 295 288 285 281 271 262 261 260 257 257 247 241 238 242 246 247 246 245 250 264 272 264 258 259 263 266 263 257 252 254 256 266 272 270 263 261 265 270 269 269 264 261 256 250 247 250 248 249 249 255 257 258 250 244 243 241 240 236 234 234 232 232 232 228 224 222 224 227 229 233 238 240 241 243 246
321 319 317 317 317 319 313 304 302 297 306 314 316 314 301 288 281 273 268 264 263 258 253 241 237 237 242 246 256 253 252 246 254 260 264 268 273 277 277 281 283 275 272 266 258 260 260 262 266 270 271 268 265 259 256 251 247 243 245 246 249 254 259 258 257 255 253 249 239 235 230 228 227 223 222 220 218 216 221 224 229 230 234 236 240 240 243
329 325 324 321 319 321 332 326 332 336 334 331 318 319 317 318 311 302 287 277 268 269 269 264 260 265 264 256 260 267 267 263 258 264 277 275 273 274 275 271 283 301 310 300 274 265 278 272 265 262 262 265 264 267 258 262 255 253 251 249 246 252 254 259 261 260 253 248 244 237 232 227 223 215 207 206 210 211 215 219 222 221 224 236 245 248 251
333 330 328 329 327 328 324 328 344 342 333 336 342 336 334 327 322 315 312 310 304 280 266 258 248 246 270 285 292 348 18 12 14 13 352 336 333 36 36 26 10 348 332 333 334 328 316 306 303 302 288 288 286 296 320 299 257 267 278 273 261 253 268 295 299 289 269 251 239 230 221 221 215 208 193 193 200 203 204 207 202 204 222 235 242 243 244
336 335 335 337 337 342 351 2 356 340 350 14 16 14 10 12 13 8 4 343 328 314 320 327 8 41 54 55 50 42 31 21 11 7 13 28 35 57 41 31 16 6 353 341 321 323 326 334 351 20 24 29 24 22 14 11 1 346 340 311 339 348 337 322 306 297 288 266 224 206 201 197 205 202 192 191 188 186 190 195 193 187 157 79 64 57 53
340 339 343 347 349 3 7 13 15 16 17 23 25 25 25 30 36 36 36 33 33 42 54 60 65 60 51 53 49 38 27 16 9 9 24 41 43 58 55 37 24 8 346 320 326 353 355 4 25 27 30 22 21 22 19 22 23 28 21 18 6 338 328 324 333 347 360 16 36 65 108 128 148 154 152 153 136 110 95 93 90 86 77 68 65 59 53
343 342 345 352 6 9 14 19 21 22 21 22 26 26 22 30 37 40 40 39 32 34 42 44 50 52 50 49 45 40 30 25 23 21 25 40 53 48 42 31 17 2 353 350 11 23 19 12 8 20 21 18 18 19 26 20 15 13 9 8 349 343 351 5 12 18 25 35 46 42 48 65 67 72 77 79 84 85 86 82 77 76 76 71 67 64 63
348 351 358 6 16 21 23 24 28 28 27 26 27 28 28 31 36 41 38 36 33 36 38 39 46 48 46 43 43 41 40 37 39 37 36 40 36 33 36 24 0 1 1 5 18 23 24 24 16 11 11 22 27 24 25 23 27 24 17 10 3 6 11 19 24 24 26 40 48 49 45 58 65 66 68 70 70 73 74 74 71 68 72 74 72 69 67
353 1 12 17 23 26 28 27 30 33 33 31 29 30 31 33 38 40 36 39 40 41 43 41 41 43 42 38 38 36 37 39 47 48 47 44 34 27 30 18 356 356 347 356 26 30 26 23 16 14 5 16 33 39 48 26 35 36 29 23 19 17 20 24 29 27 28 42 48 53 52 52 57 63 65 68 65 65 67 71 70 67 64 64 66 64 69
357 7 13 17 22 22 24 25 26 27 32 27 24 24 23 26 31 34 36 36 35 36 38 37 35 38 39 37 40 39 33 26 34 44 54 54 47 37 30 4 357 1 0 24 26 37 29 23 20 18 7 18 37 41 50 42 40 39 36 33 28 27 29 32 34 31 30 34 41 43 46 52 54 56 60 62 63 61 64 68 70 68 66 65 69 70 70
354 6 9 12 14 12 16 20 22 24 28 21 12 14 19 23 22 25 29 32 34 34 36 37 37 37 35 33 37 38 33 29 29 25 41 41 41 31 21 16 9 6 16 32 27 34 32 25 23 16 12 35 38 43 45 43 40 40 40 40 38 36 34 35 37 40 41 40 42 43 44 46 49 48 50 54 57 56 53 55 59 58 58 56 54 55 56
344 354 1 5 7 11 10 8 9 10 8 6 12 15 21 25 26 24 27 30 32 30 31 32 30 26 28 33 40 39 40 39 37 31 37 31 36 20 4 7 16 22 24 32 41 37 32 25 20 20 26 41 45 46 46 41 38 39 41 43 41 44 40 40 38 40 44 47 48 48 49 52 55 56 57 57 58 58 59 59 57 57 58 57 54 54 52
336 344 348 358 9 11 5 6 5 6 14 22 28 22 20 24 30 31 33 34 35 32 31 32 33 29 23 22 24 40 50 48 44 44 46 42 45 13 358 18 28 28 39 43 39 32 27 22 26 33 38 42 46 49 45 42 41 39 35 36 39 41 42 40 39 42 44 46 46 48 51 54 55 54 55 58 58 60 60 61 60 56 55 56 55 56 56
329 335 343 350 355 4 5 9 10 22 22 25 28 22 9 14 21 28 35 38 41 38 36 36 37 34 30 30 25 25 32 49 51 40 40 38 35 30 21 26 33 36 43 46 43 34 27 27 32 36 43 46 49 47 40 40 38 39 39 39 34 38 39 41 41 41 41 43 46 52 53 53 54 54 55 55 55 55 55 58 59 57 56 59 58 57 57
329 331 331 338 344 353 6 15 23 24 21 17 9 17 11 18 25 23 26 33 38 39 39 38 38 36 32 31 33 34 26 26 59 38 23 30 29 32 29 27 27 29 40 49 48 38 32 33 37 40 44 49 48 42 41 40 40 39 40 38 38 33 30 31 34 35 39 41 42 44 46 47 48 51 51 52 52 50 50 53 54 54 54 57 59 57 57
315 324 318 315 343 0 5 11 22 24 13 353 13 11 356 22 37 29 23 24 34 38 38 36 36 37 36 31 32 35 37 34 56 64 26 34 35 34 32 32 31 32 40 44 41 39 31 35 38 40 45 48 48 42 42 43 44 46 43 41 40 38 36 35 34 34 41 43 42 44 43 43 43 44 47 48 49 48 49 50 46 44 49 52 53 51 51
237 264 289 332 353 351 353 2 17 13 348 14 21 359 349 22 44 21 13 24 31 37 39 34 35 35 32 30 30 33 34 38 41 48 50 44 40 41 37 36 35 37 39 41 38 35 28 32 37 39 44 47 43 41 45 47 47 47 46 44 46 46 42 42 44 43 44 43 39 36 38 44 46 49 53 56 54 53 53 54 56 59 58 55 52 52 50
334 345 326 321 330 344 351 23 9 355 29 30 23 10 32 55 54 34 25 12 16 41 45 40 35 29 25 30 33 30 28 31 35 36 41 40 41 42 39 41 41 39 40 41 39 32 28 28 30 33 43 47 46 43 41 42 48 48 44 39 41 39 40 40 38 40 41 40 39 40 39 34 32 34 32 34 38 42 42 46 46 45 43 48 49 48 46
294 302 310 322 346 3 32 28 20 28 32 34 35 38 44 48 64 50 36 19 34 44 43 57 43 17 18 30 35 35 31 31 32 33 37 38 37 39 36 39 43 39 39 40 38 34 31 29 35 36 38 43 46 51 53 51 51 46 43 40 42 40 37 37 39 41 41 40 41 44 43 39 39 41 38 34 35 37 38 38 42 44 45 46 48 49 48